This is the latest recevied weather packets stored in our database for station/object DH2PG-6. If no packets are shown the sender has not sent any weather packets the latest 1 day(s).
| Time | Temp. | Humidity | Pressure | Rain* | Wind** | Luminosity | Snow |
|---|---|---|---|---|---|---|---|
| 1777985127 | 15.56° C | 74% | 1004.6 hPa | 0 mm | 0 m/s | - | - |
| 1777984827 | 15.56° C | 74% | 1004.7 hPa | 0 mm | 0 m/s | - | - |
| 1777984526 | 15.56° C | 73% | 1004.8 hPa | 0 mm | 0 m/s | - | - |
| 1777984226 | 16.11° C | 73% | 1004.8 hPa | 0 mm | 0 m/s | - | - |
| 1777983926 | 16.11° C | 72% | 1004.8 hPa | 0 mm | 0 m/s | - | - |
| 1777983626 | 16.67° C | 71% | 1004.8 hPa | 0 mm | 0 m/s | - | - |
| 1777983325 | 16.67° C | 70% | 1004.9 hPa | 0 mm | 0 m/s | - | - |
| 1777983025 | 17.22° C | 69% | 1004.9 hPa | 0 mm | 0 m/s | - | - |
| 1777982725 | 17.78° C | 68% | 1004.9 hPa | 0 mm | 0 m/s | - | - |
| 1777982425 | 17.78° C | 68% | 1004.9 hPa | 0 mm | 0 m/s | - | - |
| 1777981824 | 18.33° C | 70% | 1005 hPa | 0 mm | 0 m/s | - | - |
| 1777981524 | 17.78° C | 70% | 1005 hPa | 0 mm | 0 m/s | - | - |
| 1777981223 | 17.78° C | 70% | 1005.1 hPa | 0 mm | 0 m/s | - | - |
| 1777980923 | 17.78° C | 72% | 1005.1 hPa | 0 mm | 0 m/s | - | - |
| 1777980323 | 16.67° C | 72% | 1005 hPa | 0 mm | 0 m/s | - | - |
| 1777980022 | 16.67° C | 72% | 1005.3 hPa | 0 mm | 0 m/s | - | - |
| 1777979422 | 16.67° C | 71% | 1005.3 hPa | 0 mm | 0 m/s | - | - |
| 1777979121 | 16.67° C | 71% | 1005.2 hPa | 0 mm | 0 m/s | - | - |
| 1777978821 | 17.22° C | 70% | 1005.4 hPa | 0 mm | 0 m/s | - | - |
| 1777978221 | 17.78° C | 68% | 1005.5 hPa | 0 mm | 0 m/s | - | - |
| 1777977920 | 18.33° C | 68% | 1005.5 hPa | 0 mm | 0 m/s | - | - |
| 1777977620 | 18.89° C | 68% | 1005.5 hPa | 0 mm | 0 m/s | - | - |
| 1777977320 | 18.89° C | 69% | 1005.5 hPa | 0 mm | 0 m/s | - | - |
| 1777977019 | 18.33° C | 69% | 1005.5 hPa | 0 mm | 0 m/s | - | - |
| 1777976763 | 18.33° C | 69% | 1005.5 hPa | 0 mm | 0 m/s | - | - |
* Rain latest hour (hover to see other rain measurements)
** Current wind speed in m/s (hover to see current wind gust speed)